Date String (YYYY-MM-DD hh:mm:ss) UTC,Instrument flags,absolute air pressure of the measurement (hPa),sample flow rate (lpm),inlet stack bypass flow (lpm),air temperature of the measurement (°C),ambient temperature measured by the external sensor (°C),aerosol sample conditioner tube jacket temperature (°C),OPC LED temperature (°C),internal box temperature (°C),relative humidity of the measurement (%),span deviation,mass concentration of particles derived from Lorenz-Mie calculation of OPC scattering (μg/m³),mass concentration of particles derived from Lorenz-Mie calculation of OPC scattering (μg/m³),mass concentration of particles derived from Lorenz-Mie calculation of OPC scattering (μg/m³)
DateTimeUTC,F1_M11,P_M11,Q1_M11,Q2_M11,T1_M11,T2_M11,T3_M11,T4_M11,T5_M11,U1_M11,ZSPAN_M11,X2_M11,X0_M11,X1_M11
2023-09-20 16:00:00,SystemResetWarning,0829.7,4.99,000.00,028.3,026.8,000.0,036.5,029.8,21.4,0000.0,0002.07,0003.30,0001.60
2023-09-20 16:01:00,SystemResetWarning,0829.7,4.99,000.00,028.2,025.3,000.0,036.5,029.4,21.6,0000.0,0002.12,0004.31,0001.59
2023-09-20 16:02:00,SystemResetWarning,0829.7,5.01,000.00,028.1,024.4,000.0,036.4,029.2,22.1,0000.0,0002.15,0004.47,0001.60
2023-09-20 16:03:00,SystemResetWarning,0829.7,5.02,000.00,028.0,024.5,000.0,036.4,029.2,22.0,0000.0,0002.20,0004.99,0001.61
2023-09-20 16:04:00,SystemResetWarning,0829.7,5.00,000.00,027.9,024.8,000.0,036.4,029.2,21.8,0000.0,0002.21,0006.51,0001.61
2023-09-20 16:05:00,SystemResetWarning,0829.7,5.00,000.00,027.9,025.2,000.0,036.4,029.3,21.9,0000.0,0002.20,0006.49,0001.61
2023-09-20 16:06:00,SystemResetWarning,0829.7,5.00,000.00,027.9,025.5,000.0,036.4,029.3,21.9,0000.0,0002.13,0006.18,0001.61
2023-09-20 16:07:00,SystemResetWarning,0829.7,5.00,000.00,027.9,025.8,000.0,036.4,029.4,22.3,0000.0,0002.08,0006.01,0001.61
2023-09-20 16:08:00,SystemResetWarning,0829.7,4.99,000.00,028.0,026.1,000.0,036.3,029.4,22.4,0000.0,0002.10,0006.04,0001.62
2023-09-20 16:09:00,SystemResetWarning,0829.7,5.00,000.00,028.0,026.3,000.0,036.3,029.5,22.0,0000.0,0002.11,0006.07,0001.62
2023-09-20 16:10:00,SystemResetWarning,0829.7,5.00,000.00,028.0,026.5,000.0,036.3,029.6,21.8,0000.0,0002.09,0006.05,0001.61
2023-09-20 16:11:00,SystemResetWarning,0829.8,5.01,000.00,028.1,026.6,000.0,036.3,029.6,21.7,0000.0,0002.05,0005.84,0001.60
2023-09-20 16:12:00,SystemResetWarning,0829.8,5.01,000.00,028.1,026.8,000.0,036.4,029.7,21.9,0000.0,0002.08,0004.97,0001.61
2023-09-20 16:13:00,SystemResetWarning,0829.8,5.00,000.00,028.1,026.9,000.0,036.4,029.7,22.2,0000.0,0002.08,0005.01,0001.62
2023-09-20 16:14:00,SystemResetWarning,0829.8,5.00,000.00,028.2,027.0,000.0,036.4,029.8,22.3,0000.0,0002.06,0005.99,0001.63
2023-09-20 16:15:00,SystemResetWarning,0829.8,5.00,000.00,028.2,027.1,000.0,036.4,029.8,22.7,0000.0,0002.08,0004.77,0001.64
2023-09-20 16:16:00,SystemResetWarning,0829.7,4.98,000.00,028.2,026.0,000.0,036.4,029.6,22.4,0000.0,0002.11,0005.06,0001.66
2023-09-20 16:17:00,SystemResetWarning,0829.7,5.01,000.00,028.1,024.7,000.0,036.4,029.1,22.3,0000.0,0002.19,0005.60,0001.69
2023-09-20 16:18:00,SystemResetWarning,0829.7,5.01,000.00,028.0,024.5,000.0,036.3,029.2,22.4,0000.0,0002.25,0005.79,0001.72
2023-09-20 16:19:00,SystemResetWarning,0829.7,4.99,000.00,027.9,024.7,000.0,036.3,029.2,21.6,0000.0,0002.27,0005.92,0001.74
2023-09-20 16:20:00,SystemResetWarning,0829.7,5.00,000.00,027.9,025.0,000.0,036.3,029.2,21.3,0000.0,0002.24,0006.39,0001.73
2023-09-20 16:21:00,SystemResetWarning,0829.7,5.00,000.00,027.9,025.4,000.0,036.3,029.2,21.7,0000.0,0002.27,0006.96,0001.76
2023-09-20 16:22:00,SystemResetWarning,0829.7,5.01,000.00,027.9,025.7,000.0,036.3,029.3,22.0,0000.0,0002.31,0007.12,0001.78
2023-09-20 16:23:00,SystemResetWarning,0829.7,5.00,000.00,027.9,026.0,000.0,036.3,029.4,21.9,0000.0,0002.35,0007.29,0001.80
2023-09-20 16:24:00,SystemResetWarning,0829.7,4.99,000.00,027.9,026.2,000.0,036.3,029.4,22.0,0000.0,0002.35,0007.27,0001.82
2023-09-20 16:25:00,SystemResetWarning,0829.7,5.00,000.00,028.0,026.4,000.0,036.3,029.5,21.4,0000.0,0002.44,0007.44,0001.83
2023-09-20 16:26:00,SystemResetWarning,0829.7,5.00,000.00,028.0,026.6,000.0,036.3,029.6,21.2,0000.0,0002.47,0007.39,0001.85
2023-09-20 16:27:00,SystemResetWarning,0829.7,5.00,000.00,028.0,026.7,000.0,036.3,029.6,21.9,0000.0,0002.50,0007.30,0001.86
2023-09-20 16:28:00,SystemResetWarning,0829.7,5.00,000.00,028.1,026.8,000.0,036.3,029.7,22.0,0000.0,0002.48,0006.81,0001.84
2023-09-20 16:29:00,SystemResetWarning,0829.7,5.00,000.00,028.1,027.0,000.0,036.3,029.7,22.2,0000.0,0002.45,0006.74,0001.82
2023-09-20 16:30:00,SystemResetWarning,0829.6,5.00,000.00,028.2,027.1,000.0,036.3,029.8,21.6,0000.0,0002.46,0006.71,0001.82
2023-09-20 16:31:00,SystemResetWarning,0829.7,4.99,000.00,028.2,026.7,000.0,036.4,029.7,21.8,0000.0,0002.50,0006.60,0001.82
2023-09-20 16:32:00,SystemResetWarning,0829.7,4.99,000.00,028.1,025.1,000.0,036.3,029.4,22.2,0000.0,0002.48,0005.94,0001.82
2023-09-20 16:33:00,SystemResetWarning,0829.7,5.01,000.00,028.0,024.3,000.0,036.3,029.2,22.4,0000.0,0002.43,0005.85,0001.81
2023-09-20 16:34:00,SystemResetWarning,0829.7,5.00,000.00,027.9,024.5,000.0,036.2,029.2,21.4,0000.0,0002.38,0005.81,0001.80
2023-09-20 16:35:00,SystemResetWarning,0829.7,5.01,000.00,027.9,024.8,000.0,036.2,029.1,22.5,0000.0,0002.32,0005.78,0001.80
2023-09-20 16:36:00,SystemResetWarning,0829.7,5.00,000.00,027.8,025.2,000.0,036.2,029.2,22.5,0000.0,0002.28,0005.79,0001.80
2023-09-20 16:37:00,SystemResetWarning,0829.7,5.00,000.00,027.8,025.5,000.0,036.2,029.3,22.2,0000.0,0002.23,0004.48,0001.80
2023-09-20 16:38:00,SystemResetWarning,0829.7,5.00,000.00,027.9,025.8,000.0,036.2,029.3,22.8,0000.0,0002.22,0005.01,0001.78
2023-09-20 16:39:00,SystemResetWarning,0829.7,5.00,000.00,027.9,026.0,000.0,036.2,029.4,22.2,0000.0,0002.23,0005.11,0001.80
2023-09-20 16:40:00,SystemResetWarning,0829.7,4.99,000.00,027.9,026.3,000.0,036.2,029.5,22.2,0000.0,0002.24,0005.27,0001.82
2023-09-20 16:41:00,SystemResetWarning,0829.7,5.00,000.00,027.9,026.5,000.0,036.2,029.5,22.6,0000.0,0002.23,0006.02,0001.83
2023-09-20 16:42:00,SystemResetWarning,0829.7,5.01,000.00,028.0,026.6,000.0,036.3,029.6,21.5,0000.0,0002.22,0006.19,0001.84
2023-09-20 16:43:00,SystemResetWarning,0829.7,5.00,000.00,028.0,026.8,000.0,036.3,029.6,21.4,0000.0,0002.22,0005.99,0001.83
2023-09-20 16:44:00,SystemResetWarning,0829.7,4.99,000.00,028.1,026.9,000.0,036.3,029.7,21.5,0000.0,0002.26,0006.18,0001.84
2023-09-20 16:45:00,SystemResetWarning,0829.7,4.99,000.00,028.1,026.3,000.0,036.3,029.6,21.5,0000.0,0002.25,0006.11,0001.85
2023-09-20 16:46:00,SystemResetWarning,0829.7,5.00,000.00,028.0,024.7,000.0,036.2,029.2,20.9,0000.0,0002.31,0006.14,0001.85
2023-09-20 16:47:00,SystemResetWarning,0829.7,5.01,000.00,027.8,024.2,000.0,036.2,029.1,20.9,0000.0,0002.34,0005.61,0001.84
2023-09-20 16:48:00,SystemResetWarning,0829.7,5.01,000.00,027.8,024.5,000.0,036.2,029.1,21.9,0000.0,0002.33,0005.60,0001.85
2023-09-20 16:49:00,SystemResetWarning,0829.7,5.00,000.00,027.7,024.8,000.0,036.2,029.1,21.6,0000.0,0002.36,0005.16,0001.86
2023-09-20 16:50:00,SystemResetWarning,0829.7,4.99,000.00,027.7,025.2,000.0,036.2,029.1,21.1,0000.0,0002.38,0005.23,0001.86
2023-09-20 16:51:00,SystemResetWarning,0829.7,5.00,000.00,027.7,025.5,000.0,036.2,029.2,21.3,0000.0,0002.40,0005.40,0001.86
2023-09-20 16:52:00,SystemResetWarning,0829.7,5.00,000.00,027.8,025.8,000.0,036.2,029.3,21.5,0000.0,0002.39,0004.76,0001.84
2023-09-20 16:53:00,SystemResetWarning,0829.7,5.00,000.00,027.8,026.0,000.0,036.2,029.3,20.9,0000.0,0002.40,0004.71,0001.83
2023-09-20 16:54:00,SystemResetWarning,0829.7,5.01,000.00,027.8,026.3,000.0,036.2,029.4,20.9,0000.0,0002.40,0004.81,0001.82
2023-09-20 16:55:00,SystemResetWarning,0829.7,5.00,000.00,027.9,026.5,000.0,036.2,029.5,21.0,0000.0,0002.41,0004.53,0001.81
2023-09-20 16:56:00,SystemResetWarning,0829.7,5.00,000.00,027.9,026.6,000.0,036.2,029.5,20.7,0000.0,0002.43,0004.43,0001.81
2023-09-20 16:57:00,SystemResetWarning,0829.7,4.99,000.00,027.9,026.8,000.0,036.2,029.6,21.0,0000.0,0002.43,0004.34,0001.81
2023-09-20 16:58:00,SystemResetWarning,0829.7,5.00,000.00,028.0,026.9,000.0,036.2,029.7,20.2,0000.0,0002.42,0004.39,0001.81
2023-09-20 16:59:00,SystemResetWarning,0829.7,5.00,000.00,028.0,026.8,000.0,036.3,029.7,20.0,0000.0,0002.44,0004.57,0001.80
